Wind_Speed
24 25 28 29 24 11 7 6 5 6 8 11 15 17 20 22 24 27 31 33 35 37 37 38 37 36 38 35 38 41 43 41 36 33 33 40 37 26 28 25 23 30 46 54 57
23 23 26 27 23 19 4 5 5 5 6 8 10 15 16 20 21 23 27 30 31 34 36 37 38 37 38 36 38 40 42 38 34 32 32 38 38 30 28 32 33 29 27 40 52
22 22 23 24 25 21 10 4 5 7 7 7 8 10 14 16 19 21 23 27 30 32 33 34 36 37 37 38 38 39 38 37 35 34 31 31 48 37 25 31 30 29 32 35 46
22 21 21 21 22 22 18 9 6 7 9 10 10 10 11 14 16 16 21 23 26 30 33 34 35 36 37 38 37 40 39 39 37 35 34 34 42 51 36 36 34 38 36 41 49
21 20 20 19 18 19 20 16 13 7 9 12 14 14 12 13 13 13 18 21 23 27 30 33 35 36 37 38 39 41 40 41 40 39 38 36 38 52 51 52 38 42 47 39 45
20 20 19 18 17 16 15 16 16 13 6 10 14 16 17 18 12 14 14 17 20 23 26 30 33 36 40 38 39 40 42 43 43 42 42 42 40 52 52 49 46 42 55 46 49
19 18 18 17 16 15 14 13 13 12 12 10 11 13 16 20 18 17 15 16 17 20 23 26 31 34 34 36 37 39 43 43 44 44 46 48 49 43 51 60 57 59 60 54 51
18 17 16 16 15 15 14 12 11 10 9 10 11 11 11 16 18 18 19 17 16 17 19 23 25 28 32 36 38 40 42 42 38 41 41 39 46 41 41 48 57 60 59 60 60
16 16 15 15 15 14 13 13 12 11 10 10 10 11 11 11 13 15 19 20 19 18 19 20 22 26 30 33 36 40 42 41 37 35 36 39 45 41 40 45 46 47 51 52 57
16 16 15 15 15 14 13 12 12 11 11 11 12 12 13 11 10 12 18 20 22 22 22 22 23 24 27 32 33 34 38 38 34 32 24 29 45 42 43 45 46 47 48 52 52
17 15 15 15 15 15 13 12 11 13 13 11 13 13 13 12 10 9 9 19 22 24 24 26 27 25 25 26 29 32 34 34 38 33 23 24 31 38 43 43 46 46 48 51 46
18 16 15 15 15 16 15 14 13 10 12 14 12 12 12 11 11 10 9 10 15 21 25 29 29 26 26 28 29 31 28 37 43 35 26 30 37 46 50 47 44 42 46 45 44
21 18 16 15 15 15 16 16 16 14 13 14 10 11 13 13 13 12 13 13 13 14 20 28 29 31 26 25 27 30 36 41 38 35 40 40 41 44 48 43 36 39 41 43 45
20 19 17 15 16 15 17 17 18 17 16 12 9 11 13 14 13 17 17 17 17 19 22 25 22 27 24 29 32 37 35 33 28 28 40 46 54 52 51 47 48 44 46 46 46
21 21 19 16 16 16 16 16 17 18 19 15 14 14 14 16 19 18 15 20 23 25 30 25 26 25 28 28 31 38 32 22 30 34 40 44 59 45 45 42 37 34 34 42 46
21 20 20 18 16 19 17 17 16 16 16 19 18 15 15 14 15 20 19 19 22 26 24 24 23 26 25 29 31 33 29 33 38 39 47 37 37 37 29 26 26 30 31 35 36
22 21 20 19 17 19 19 17 15 14 13 11 12 23 23 26 26 26 28 30 30 33 30 30 33 22 25 31 25 31 36 32 34 38 35 32 25 28 20 16 21 26 32 34 33
21 24 20 20 19 19 19 16 14 16 15 20 27 23 21 20 20 18 20 29 29 33 43 31 35 35 27 34 37 38 42 40 38 34 25 29 29 17 22 20 20 22 34 40 41
22 23 23 20 19 19 20 18 15 19 22 19 17 23 22 22 25 23 22 24 29 41 42 47 42 28 19 30 35 33 35 26 37 28 29 29 28 23 23 23 22 27 35 41 42
24 23 23 21 22 20 20 20 18 20 23 19 20 21 21 21 23 25 28 36 41 42 46 46 43 39 26 34 42 37 38 31 33 34 37 27 25 34 33 31 24 28 34 40 44
29 26 25 17 21 21 20 20 21 22 24 22 22 24 23 25 26 28 31 32 42 38 38 42 47 46 38 44 42 35 34 34 36 32 38 37 30 25 40 39 30 29 38 41 46
35 30 25 26 22 20 20 20 20 18 22 23 23 24 23 24 27 30 32 34 33 31 29 31 38 41 46 30 34 39 30 32 33 45 40 31 28 33 32 35 43 32 39 43 40
39 34 28 26 24 24 23 21 21 22 19 21 22 22 24 25 31 30 30 29 29 28 25 25 22 28 25 31 38 28 31 33 39 24 33 38 33 27 36 40 33 35 52 48 44
37 37 32 27 23 21 21 22 21 24 22 20 20 22 24 24 27 30 29 25 27 21 22 22 22 25 29 27 31 35 31 33 46 35 34 38 27 31 31 34 38 41 28 34 34
39 38 34 28 27 23 23 21 20 21 22 20 18 22 24 25 26 27 25 20 19 18 19 19 14 16 22 27 24 24 19 30 25 34 41 28 33 35 26 35 36 40 40 42 37
36 39 36 31 26 23 23 24 22 20 20 19 20 20 23 24 27 25 22 19 14 16 18 15 15 16 12 14 13 13 13 18 19 21 29 32 39 34 37 25 33 36 43 54 57
35 38 38 35 28 24 23 22 22 18 20 19 18 20 22 24 25 24 20 18 14 14 17 19 17 15 8 13 12 12 15 13 12 18 22 31 34 39 41 41 40 45 49 51 55
Wind_Direction
358 353 356 359 358 334 307 289 268 246 250 254 253 250 246 245 246 243 243 241 242 240 241 243 243 240 243 238 239 241 241 238 240 243 242 222 215 234 253 247 250 271 234 239 240
1 2 359 5 7 7 297 302 276 259 249 259 258 253 253 247 243 245 242 240 239 241 238 240 242 242 241 239 237 241 244 242 243 244 244 224 207 214 253 254 260 252 244 238 249
1 8 9 7 14 19 10 269 286 267 263 264 265 261 255 254 246 247 244 242 239 239 240 238 240 240 240 240 239 240 242 245 243 243 239 232 219 205 233 249 257 256 251 248 254
360 6 12 14 15 23 30 8 264 269 269 269 271 270 266 257 254 251 249 244 242 241 240 239 239 240 238 240 239 241 242 243 242 241 239 231 215 211 208 262 242 250 251 247 249
357 2 8 15 18 22 27 33 23 275 264 270 271 271 269 268 264 253 254 251 245 243 242 242 242 241 241 240 239 242 241 242 241 242 244 238 221 208 208 220 247 244 245 255 259
352 358 1 9 14 17 28 28 30 29 4 282 274 273 272 266 265 262 257 252 252 248 245 243 242 242 242 242 245 244 241 239 241 243 243 242 235 217 220 216 241 247 242 236 251
346 350 357 0 4 10 14 23 24 19 12 355 308 284 273 270 259 253 258 256 252 252 251 248 246 247 249 247 245 241 243 246 247 249 245 246 243 243 228 215 222 238 246 246 241
337 341 348 354 357 358 1 8 14 17 16 10 358 344 303 275 265 249 244 254 256 253 252 254 253 251 249 248 247 248 250 249 248 254 254 262 249 244 244 237 234 244 254 254 261
331 331 337 342 346 350 349 351 360 4 4 7 14 14 1 321 268 258 254 248 252 254 254 254 254 252 252 250 248 250 249 250 248 255 259 258 249 249 245 240 239 238 243 245 249
326 325 325 332 334 336 340 343 345 348 352 357 1 8 12 15 334 267 256 257 255 253 255 256 257 255 253 253 254 251 252 250 251 245 258 262 251 248 247 247 246 244 243 244 246
323 322 318 321 324 326 328 333 337 334 342 346 347 354 356 9 2 350 289 262 260 261 260 256 258 258 257 255 251 249 249 253 248 234 244 239 253 260 255 251 247 246 245 248 250
319 319 315 313 315 318 318 321 325 330 327 337 336 334 331 348 346 331 330 305 280 265 263 263 261 257 255 251 249 243 240 238 239 229 226 219 227 234 243 249 252 252 254 255 255
321 313 312 309 310 311 312 311 314 319 322 323 318 314 334 330 330 320 314 306 294 288 272 265 262 260 253 254 250 237 239 248 250 240 219 226 229 240 256 255 251 254 255 253 249
321 317 306 306 307 307 306 306 305 310 314 312 316 308 320 316 317 307 307 299 298 292 285 279 274 260 245 243 257 254 254 261 258 249 232 226 241 249 256 260 264 256 248 249 253
322 317 308 303 305 304 301 298 305 307 315 311 313 315 320 323 316 305 299 299 297 295 291 297 286 266 247 241 257 265 266 249 241 242 243 236 240 257 257 256 258 257 255 248 247
319 317 309 300 301 306 305 301 304 307 315 315 313 316 308 306 304 305 301 294 292 291 291 294 290 276 281 266 258 265 253 252 246 243 250 254 259 256 261 263 260 242 259 245 242
317 315 314 301 296 300 303 297 299 299 299 282 296 311 322 320 319 319 317 312 315 316 304 295 293 272 268 262 254 261 260 263 260 268 275 264 260 259 250 221 227 233 242 257 248
320 314 314 305 297 300 303 300 292 280 266 256 273 302 297 293 287 292 281 279 287 280 284 273 293 272 260 273 267 249 250 267 261 265 278 272 238 241 239 229 241 243 241 243 251
325 320 311 308 297 296 300 298 281 277 275 279 281 284 290 286 289 283 276 271 262 259 269 273 277 282 272 275 268 291 281 283 269 258 271 276 253 228 241 239 236 231 237 249 257
321 319 305 308 304 296 293 291 285 276 282 296 291 292 292 289 285 277 278 279 275 266 268 274 279 274 250 268 280 288 272 276 258 253 273 266 254 229 240 208 207 219 239 243 248
315 314 303 299 296 294 292 293 288 276 281 291 291 292 293 297 299 299 297 288 282 296 292 278 274 267 264 267 261 258 260 263 259 256 256 262 258 244 252 246 238 249 238 236 242
309 311 307 308 303 295 295 296 291 287 277 286 292 292 295 299 301 303 306 302 308 307 291 287 278 274 271 271 246 247 247 252 259 258 251 255 247 249 254 243 249 239 235 248 246
307 305 307 305 302 302 300 295 294 294 294 285 290 293 299 305 307 308 308 308 316 315 311 282 268 273 272 275 267 249 247 252 239 253 246 257 245 246 245 251 252 256 246 242 234
304 301 302 301 297 297 291 292 294 297 289 292 290 294 298 305 307 313 316 316 317 331 322 312 303 297 287 281 271 257 259 253 247 258 260 256 256 263 247 254 253 257 255 233 259
304 299 299 297 298 302 299 293 286 286 289 290 290 298 305 312 313 312 314 315 308 332 342 345 331 306 290 290 284 259 258 253 249 266 263 253 247 257 252 253 259 261 268 266 255
301 297 295 294 295 295 294 293 295 290 288 284 295 302 307 312 314 316 316 313 302 318 330 343 347 323 318 302 294 268 253 252 257 262 271 261 246 253 253 246 248 257 263 268 259
295 296 293 291 290 292 295 296 293 289 288 290 296 304 309 313 314 317 315 310 298 305 319 334 337 337 319 308 306 304 284 270 254 267 266 262 257 254 252 245 245 260 261 262 260
Height
5778 5771 5763 5755 5747 5742 5742 5743 5744 5745 5747 5750 5752 5754 5756 5759 5762 5766 5769 5774 5776 5780 5783 5785 5789 5793 5794 5799 5800 5802 5805 5810 5817 5820 5824 5829 5829 5834 5838 5843 5846 5842 5852 5850 5849
5776 5770 5763 5755 5748 5742 5741 5742 5743 5745 5746 5748 5749 5751 5753 5755 5758 5761 5763 5765 5769 5772 5776 5779 5781 5784 5788 5791 5793 5794 5798 5805 5810 5812 5813 5819 5820 5823 5825 5829 5833 5838 5843 5842 5840
5775 5770 5763 5757 5750 5744 5741 5741 5742 5744 5745 5746 5747 5748 5750 5752 5755 5755 5757 5759 5762 5765 5768 5772 5775 5778 5782 5784 5786 5789 5794 5796 5801 5803 5804 5809 5814 5817 5816 5816 5823 5828 5830 5834 5832
5775 5770 5764 5758 5753 5747 5743 5741 5741 5742 5743 5745 5745 5745 5747 5748 5752 5752 5752 5754 5756 5758 5761 5764 5767 5770 5774 5776 5779 5781 5785 5787 5792 5793 5796 5799 5804 5807 5811 5804 5812 5813 5819 5819 5821
5773 5769 5764 5759 5755 5750 5745 5742 5740 5740 5741 5742 5742 5743 5744 5745 5747 5747 5748 5749 5751 5753 5755 5757 5760 5762 5764 5767 5769 5772 5776 5777 5782 5785 5787 5791 5795 5798 5802 5806 5803 5805 5806 5813 5811
5773 5768 5764 5759 5755 5751 5747 5744 5741 5739 5738 5738 5739 5739 5740 5741 5743 5743 5744 5745 5746 5748 5749 5751 5753 5754 5754 5759 5762 5766 5766 5768 5771 5775 5777 5779 5784 5789 5795 5795 5793 5794 5796 5805 5804
5772 5767 5763 5759 5755 5751 5748 5745 5742 5740 5738 5736 5736 5735 5735 5735 5737 5738 5739 5740 5741 5742 5744 5745 5745 5748 5751 5754 5756 5756 5756 5761 5765 5768 5769 5769 5772 5781 5785 5783 5785 5785 5788 5793 5801
5770 5766 5762 5758 5754 5751 5748 5745 5743 5740 5737 5735 5733 5732 5730 5730 5729 5733 5735 5736 5737 5737 5738 5739 5741 5742 5743 5746 5747 5749 5751 5754 5762 5759 5763 5764 5764 5775 5778 5781 5785 5785 5786 5789 5787
5767 5764 5760 5757 5753 5750 5747 5745 5742 5740 5737 5734 5732 5730 5728 5726 5726 5727 5729 5731 5732 5733 5733 5734 5735 5736 5737 5738 5740 5741 5743 5746 5753 5754 5754 5753 5757 5762 5765 5767 5774 5776 5776 5778 5779
5764 5761 5758 5755 5752 5749 5745 5742 5741 5738 5736 5734 5731 5730 5727 5725 5722 5722 5724 5725 5727 5728 5729 5729 5729 5729 5730 5730 5733 5735 5735 5738 5741 5747 5744 5744 5745 5750 5752 5754 5760 5764 5766 5767 5770
5760 5757 5755 5752 5749 5746 5743 5741 5739 5736 5733 5732 5729 5727 5725 5723 5721 5719 5719 5720 5720 5722 5723 5722 5722 5724 5724 5724 5724 5725 5726 5728 5730 5734 5733 5733 5737 5737 5741 5745 5748 5751 5754 5756 5760
5757 5754 5751 5748 5746 5743 5740 5738 5735 5734 5732 5728 5727 5725 5723 5720 5719 5718 5717 5716 5715 5716 5716 5716 5716 5718 5717 5716 5715 5715 5715 5717 5717 5725 5724 5724 5725 5727 5729 5734 5737 5741 5744 5748 5750
5753 5750 5747 5744 5742 5740 5737 5734 5732 5730 5728 5726 5724 5722 5719 5719 5717 5715 5715 5713 5711 5710 5709 5707 5710 5709 5708 5707 5707 5707 5706 5707 5711 5716 5715 5715 5713 5715 5720 5725 5731 5731 5733 5734 5737
5749 5746 5743 5740 5738 5736 5733 5730 5728 5725 5725 5724 5722 5719 5717 5715 5715 5711 5710 5710 5707 5705 5703 5701 5702 5701 5700 5701 5699 5698 5702 5701 5701 5701 5704 5708 5701 5707 5710 5714 5717 5720 5721 5723 5725
5746 5742 5738 5736 5734 5731 5730 5726 5723 5722 5720 5719 5717 5715 5712 5711 5709 5707 5707 5704 5701 5700 5696 5699 5694 5692 5690 5693 5691 5692 5694 5693 5692 5690 5690 5698 5693 5700 5705 5706 5708 5709 5712 5714 5717
5741 5737 5734 5731 5729 5727 5723 5722 5720 5719 5715 5711 5710 5710 5709 5708 5706 5702 5700 5699 5696 5693 5690 5689 5688 5687 5686 5686 5685 5685 5683 5683 5681 5681 5679 5690 5690 5690 5696 5697 5698 5699 5699 5703 5706
5736 5733 5730 5727 5725 5722 5719 5717 5718 5714 5713 5708 5707 5703 5703 5701 5698 5694 5691 5687 5686 5682 5681 5681 5678 5679 5679 5676 5677 5677 5675 5675 5674 5674 5674 5683 5676 5683 5686 5685 5686 5690 5691 5693 5697
5732 5728 5726 5723 5719 5716 5714 5713 5712 5709 5707 5705 5702 5702 5701 5699 5697 5693 5690 5688 5686 5677 5669 5665 5672 5673 5670 5670 5668 5668 5666 5664 5662 5665 5667 5669 5667 5678 5678 5676 5675 5681 5683 5682 5684
5729 5724 5720 5718 5715 5712 5710 5708 5706 5704 5701 5700 5698 5696 5695 5693 5688 5685 5681 5678 5678 5668 5665 5658 5661 5661 5659 5660 5658 5658 5661 5663 5656 5657 5657 5661 5666 5669 5670 5670 5672 5673 5676 5677 5678
5724 5722 5716 5712 5708 5707 5705 5701 5699 5696 5694 5693 5691 5690 5687 5686 5684 5681 5678 5672 5665 5662 5656 5652 5646 5655 5652 5651 5648 5650 5650 5652 5648 5647 5648 5652 5657 5661 5656 5660 5661 5665 5667 5668 5669
5718 5715 5710 5710 5704 5702 5699 5697 5693 5690 5687 5686 5685 5682 5680 5677 5675 5672 5668 5664 5652 5650 5645 5641 5636 5640 5641 5643 5640 5639 5639 5639 5638 5639 5641 5644 5650 5654 5651 5650 5652 5653 5652 5656 5659
5710 5708 5704 5700 5699 5695 5692 5690 5689 5687 5682 5679 5678 5676 5674 5671 5668 5663 5658 5650 5645 5640 5634 5630 5624 5623 5627 5629 5625 5627 5629 5631 5631 5633 5633 5636 5641 5642 5642 5641 5640 5645 5645 5649 5650
5701 5700 5697 5693 5691 5687 5685 5685 5681 5677 5676 5674 5672 5670 5668 5664 5658 5655 5649 5643 5637 5631 5626 5621 5618 5614 5618 5619 5617 5619 5621 5621 5622 5618 5623 5625 5631 5632 5634 5632 5635 5634 5635 5637 5630
5696 5692 5690 5687 5683 5683 5680 5676 5674 5670 5669 5668 5666 5664 5661 5658 5654 5646 5641 5636 5630 5627 5622 5617 5613 5608 5607 5607 5606 5610 5613 5614 5614 5614 5616 5619 5622 5627 5628 5627 5624 5622 5623 5624 5626
5687 5684 5683 5679 5676 5674 5672 5670 5668 5665 5663 5662 5661 5658 5654 5650 5646 5640 5635 5632 5627 5623 5619 5613 5609 5605 5604 5602 5600 5601 5606 5608 5608 5609 5609 5616 5615 5618 5617 5615 5614 5614 5612 5615 5617
5678 5676 5673 5672 5670 5669 5665 5663 5661 5659 5658 5656 5654 5652 5649 5644 5639 5634 5629 5625 5624 5620 5617 5613 5608 5605 5603 5598 5597 5597 5600 5602 5605 5604 5602 5602 5607 5603 5607 5608 5609 5609 5604 5604 5605
5668 5666 5665 5664 5663 5662 5660 5657 5655 5653 5652 5649 5648 5646 5643 5639 5633 5628 5624 5620 5619 5616 5613 5609 5606 5604 5601 5597 5596 5596 5595 5597 5598 5599 5597 5596 5596 5597 5598 5596 5594 5596 5596 5595 5592